Tracking 25744 objects as of 25-Jun-2022
HD Live streaming from Space Station
objects crossing your sky now

STARLINK-3203

Track STARLINK-3203 now!
10-day predictions
STARLINK-3203 is classified as:


NORAD ID: 49761
Int'l Code: 2021-115AP
Perigee: 545.5 km
Apogee: 548.3 km
Inclination: 53.2 °
Period: 95.4 minutes
Semi major axis: 6917 km
RCS: Unknown
Launch date: December 2, 2021
Source: United States (US)
Launch site: AIR FORCE EASTERN TEST RANGE (AFETR)
aabbcc
Your satellite tracking list
Your tracking list is empty




NASA's NSSDC Master Catalog

Two Line Element Set (TLE):
1 49761U 21115AP  22175.47872600  .00000629  00000-0  57599-4 0  9994
2 49761  53.2191  98.4254 0002038  51.3684 308.7491 15.08840278 31236
Source of the keplerian elements: AFSPC